Year,Month,Day,Hour,Minute,Value (Times are PST for temperature in C)
2015,12,10,00,00,4.90
2015,12,10,00,01,4.90
2015,12,10,00,02,4.90
2015,12,10,00,03,4.90
2015,12,10,00,04,4.90
2015,12,10,00,05,4.80
2015,12,10,00,06,4.80
2015,12,10,00,07,4.80
2015,12,10,00,08,4.80
2015,12,10,00,09,4.80
2015,12,10,00,10,4.80
2015,12,10,00,11,4.80
2015,12,10,00,12,4.80
2015,12,10,00,13,4.80
2015,12,10,00,14,4.80
2015,12,10,00,15,4.80
2015,12,10,00,16,4.90
2015,12,10,00,17,4.90
2015,12,10,00,18,4.90
2015,12,10,00,19,4.90
2015,12,10,00,20,4.90
2015,12,10,00,21,4.90
2015,12,10,00,22,4.90
2015,12,10,00,23,4.90
2015,12,10,00,24,4.90
2015,12,10,00,25,4.90
2015,12,10,00,26,4.90
2015,12,10,00,27,4.90
2015,12,10,00,28,4.90
2015,12,10,00,29,5.00
2015,12,10,00,30,5.00
2015,12,10,00,31,5.10
2015,12,10,00,32,5.10
2015,12,10,00,33,5.10
2015,12,10,00,34,5.10
2015,12,10,00,35,5.10
2015,12,10,00,36,5.10
2015,12,10,00,37,5.10
2015,12,10,00,38,5.10
2015,12,10,00,39,5.10
2015,12,10,00,40,5.10
2015,12,10,00,41,5.00
2015,12,10,00,42,5.00
2015,12,10,00,43,5.00
2015,12,10,00,44,5.10
2015,12,10,00,45,5.10
2015,12,10,00,46,5.10
2015,12,10,00,47,5.10
2015,12,10,00,48,5.10
2015,12,10,00,49,5.10
2015,12,10,00,50,5.10
2015,12,10,00,51,5.10
2015,12,10,00,52,5.10
2015,12,10,00,53,5.10
2015,12,10,00,54,5.10
2015,12,10,00,55,5.20
2015,12,10,00,56,5.20
2015,12,10,00,57,5.20
2015,12,10,00,58,5.20
2015,12,10,00,59,5.20
2015,12,10,01,00,5.20
2015,12,10,01,01,5.30
2015,12,10,01,02,5.30
2015,12,10,01,03,5.30
2015,12,10,01,04,5.30
2015,12,10,01,05,5.30
2015,12,10,01,06,5.40
2015,12,10,01,07,5.40
2015,12,10,01,08,5.40
2015,12,10,01,09,5.40
2015,12,10,01,10,5.40
2015,12,10,01,11,5.50
2015,12,10,01,12,5.50
2015,12,10,01,13,5.50
2015,12,10,01,14,5.60
2015,12,10,01,15,5.60
2015,12,10,01,16,5.70
2015,12,10,01,17,5.80
2015,12,10,01,18,5.90
2015,12,10,01,19,6.10
2015,12,10,01,20,6.20
2015,12,10,01,21,6.30
2015,12,10,01,22,6.50
2015,12,10,01,23,6.70
2015,12,10,01,24,6.80
2015,12,10,01,25,6.90
2015,12,10,01,26,7.10
2015,12,10,01,27,7.30
2015,12,10,01,28,7.40
2015,12,10,01,29,7.50
2015,12,10,01,30,7.60
2015,12,10,01,31,7.70
2015,12,10,01,32,7.70
2015,12,10,01,33,7.70
2015,12,10,01,34,7.70
2015,12,10,01,35,7.70
2015,12,10,01,36,7.70
2015,12,10,01,37,7.70
2015,12,10,01,38,7.70
2015,12,10,01,39,7.70
2015,12,10,01,40,7.70
2015,12,10,01,41,7.80
2015,12,10,01,42,7.80
2015,12,10,01,43,7.80
2015,12,10,01,44,7.80
2015,12,10,01,45,7.80
2015,12,10,01,46,7.90
2015,12,10,01,47,8.00
2015,12,10,01,48,8.10
2015,12,10,01,49,8.10
2015,12,10,01,50,8.10
2015,12,10,01,51,8.20
2015,12,10,01,52,8.30
2015,12,10,01,53,8.30
2015,12,10,01,54,8.40
2015,12,10,01,55,8.40
2015,12,10,01,56,8.40
2015,12,10,01,57,8.40
2015,12,10,01,58,8.40
2015,12,10,01,59,8.40
2015,12,10,02,00,8.40
2015,12,10,02,01,8.40
2015,12,10,02,02,8.40
2015,12,10,02,03,8.40
2015,12,10,02,04,8.40
2015,12,10,02,05,8.40
2015,12,10,02,06,8.40
2015,12,10,02,07,8.50
2015,12,10,02,08,8.60
2015,12,10,02,09,8.60
2015,12,10,02,10,8.60
2015,12,10,02,11,8.70
2015,12,10,02,12,8.70
2015,12,10,02,13,8.70
2015,12,10,02,14,8.70
2015,12,10,02,15,8.80
2015,12,10,02,16,8.80
2015,12,10,02,17,8.90
2015,12,10,02,18,9.00
2015,12,10,02,19,9.00
2015,12,10,02,20,9.10
2015,12,10,02,21,9.10
2015,12,10,02,22,9.10
2015,12,10,02,23,9.00
2015,12,10,02,24,9.00
2015,12,10,02,25,9.00
2015,12,10,02,26,9.00
2015,12,10,02,27,9.00
2015,12,10,02,28,9.00
2015,12,10,02,29,9.00
2015,12,10,02,30,8.90
2015,12,10,02,31,8.90
2015,12,10,02,32,8.90
2015,12,10,02,33,8.90
2015,12,10,02,34,8.90
2015,12,10,02,35,8.90
2015,12,10,02,36,8.80
2015,12,10,02,37,8.80
2015,12,10,02,38,8.80
2015,12,10,02,39,8.80
2015,12,10,02,40,8.80
2015,12,10,02,41,8.80
2015,12,10,02,42,8.80
2015,12,10,02,43,8.90
2015,12,10,02,44,8.90
2015,12,10,02,45,8.90
2015,12,10,02,46,8.90
2015,12,10,02,47,8.90
2015,12,10,02,48,8.90
2015,12,10,02,49,8.90
2015,12,10,02,50,8.90
2015,12,10,02,51,8.90
2015,12,10,02,52,8.90
2015,12,10,02,53,8.90
2015,12,10,02,54,8.90
2015,12,10,02,55,8.90
2015,12,10,02,56,8.90
2015,12,10,02,57,8.90
2015,12,10,02,58,8.80
2015,12,10,02,59,8.80
2015,12,10,03,00,8.90
2015,12,10,03,01,8.90
2015,12,10,03,02,8.90
2015,12,10,03,03,9.00
2015,12,10,03,04,9.00
2015,12,10,03,05,9.00
2015,12,10,03,06,9.10
2015,12,10,03,07,9.10
2015,12,10,03,08,9.10
2015,12,10,03,09,9.10
2015,12,10,03,10,9.10
2015,12,10,03,11,9.10
2015,12,10,03,12,9.10
2015,12,10,03,13,9.10
2015,12,10,03,14,9.10
2015,12,10,03,15,9.10
2015,12,10,03,16,9.10
2015,12,10,03,17,9.10
2015,12,10,03,18,9.10
2015,12,10,03,19,9.10
2015,12,10,03,20,9.20
2015,12,10,03,21,9.20
2015,12,10,03,22,9.20
2015,12,10,03,23,9.10
2015,12,10,03,24,9.10
2015,12,10,03,25,9.10
2015,12,10,03,26,9.10
2015,12,10,03,27,9.10
2015,12,10,03,28,9.00
2015,12,10,03,29,9.00
2015,12,10,03,30,8.90
2015,12,10,03,31,8.80
2015,12,10,03,32,8.80
2015,12,10,03,33,8.70
2015,12,10,03,34,8.70
2015,12,10,03,35,8.60
2015,12,10,03,36,8.50
2015,12,10,03,37,8.40
2015,12,10,03,38,8.40
2015,12,10,03,39,8.30
2015,12,10,03,40,8.30
2015,12,10,03,41,8.20
2015,12,10,03,42,8.20
2015,12,10,03,43,8.20
2015,12,10,03,44,8.10
2015,12,10,03,45,8.00
2015,12,10,03,46,8.00
2015,12,10,03,47,7.90
2015,12,10,03,48,7.90
2015,12,10,03,49,7.90
2015,12,10,03,50,7.90
2015,12,10,03,51,7.90
2015,12,10,03,52,7.90
2015,12,10,03,53,7.90
2015,12,10,03,54,7.90
2015,12,10,03,55,7.80
2015,12,10,03,56,7.80
2015,12,10,03,57,7.80
2015,12,10,03,58,7.70
2015,12,10,03,59,7.70
2015,12,10,04,00,7.60
2015,12,10,04,01,7.50
2015,12,10,04,02,7.40
2015,12,10,04,03,7.30
2015,12,10,04,04,7.30
2015,12,10,04,05,7.20
2015,12,10,04,06,7.20
2015,12,10,04,07,7.10
2015,12,10,04,08,7.10
2015,12,10,04,09,6.90
2015,12,10,04,10,6.80
2015,12,10,04,11,6.80
2015,12,10,04,12,6.80
2015,12,10,04,13,6.70
2015,12,10,04,14,6.70
2015,12,10,04,15,6.70
2015,12,10,04,16,6.70
2015,12,10,04,17,6.70
2015,12,10,04,18,6.70
2015,12,10,04,19,6.60
2015,12,10,04,20,6.60
2015,12,10,04,21,6.60
2015,12,10,04,22,6.60
2015,12,10,04,23,6.50
2015,12,10,04,24,6.50
2015,12,10,04,25,6.50
2015,12,10,04,26,6.40
2015,12,10,04,27,6.50
2015,12,10,04,28,6.50
2015,12,10,04,29,6.60
2015,12,10,04,30,6.70
2015,12,10,04,31,6.80
2015,12,10,04,32,6.80
2015,12,10,04,33,6.90
2015,12,10,04,34,6.90
2015,12,10,04,35,7.00
2015,12,10,04,36,7.10
2015,12,10,04,37,7.10
2015,12,10,04,38,7.10
2015,12,10,04,39,7.10
2015,12,10,04,40,7.00
2015,12,10,04,41,7.00
2015,12,10,04,42,7.00
2015,12,10,04,43,6.90
2015,12,10,04,44,6.90
2015,12,10,04,45,6.90
2015,12,10,04,46,6.90
2015,12,10,04,47,6.80
2015,12,10,04,48,6.80
2015,12,10,04,49,6.80
2015,12,10,04,50,6.70
2015,12,10,04,51,6.70
2015,12,10,04,52,6.70
2015,12,10,04,53,6.70
2015,12,10,04,54,6.70
2015,12,10,04,55,6.70
2015,12,10,04,56,6.70
2015,12,10,04,57,6.70
2015,12,10,04,58,6.60
2015,12,10,04,59,6.60
2015,12,10,05,00,6.60
2015,12,10,05,01,6.60
2015,12,10,05,02,6.60
2015,12,10,05,03,6.60
2015,12,10,05,04,6.50
2015,12,10,05,05,6.60
2015,12,10,05,06,6.60
2015,12,10,05,07,6.60
2015,12,10,05,08,6.60
2015,12,10,05,09,6.60
2015,12,10,05,10,6.60
2015,12,10,05,11,6.60
2015,12,10,05,12,6.50
2015,12,10,05,13,6.40
2015,12,10,05,14,6.40
2015,12,10,05,15,6.40
2015,12,10,05,16,6.40
2015,12,10,05,17,6.40
2015,12,10,05,18,6.40
2015,12,10,05,19,6.40
2015,12,10,05,20,6.40
2015,12,10,05,21,6.40
2015,12,10,05,22,6.40
2015,12,10,05,23,6.40
2015,12,10,05,24,6.40
2015,12,10,05,25,6.40
2015,12,10,05,26,6.40
2015,12,10,05,27,6.40
2015,12,10,05,28,6.40
2015,12,10,05,29,6.40
2015,12,10,05,30,6.40
2015,12,10,05,31,6.40
2015,12,10,05,32,6.40
2015,12,10,05,33,6.40
2015,12,10,05,34,6.40
2015,12,10,05,35,6.40
2015,12,10,05,36,6.40
2015,12,10,05,37,6.40
2015,12,10,05,38,6.40
2015,12,10,05,39,6.40
2015,12,10,05,40,6.30
2015,12,10,05,41,6.30
2015,12,10,05,42,6.30
2015,12,10,05,43,6.30
2015,12,10,05,44,6.20
2015,12,10,05,45,6.20
2015,12,10,05,46,6.20
2015,12,10,05,47,6.20
2015,12,10,05,48,6.20
2015,12,10,05,49,6.20
2015,12,10,05,50,6.20
2015,12,10,05,51,6.20
2015,12,10,05,52,6.20
2015,12,10,05,53,6.30
2015,12,10,05,54,6.30
2015,12,10,05,55,6.30
2015,12,10,05,56,6.30
2015,12,10,05,57,6.40
2015,12,10,05,58,6.40
2015,12,10,05,59,6.50
2015,12,10,06,00,6.50
2015,12,10,06,01,6.60
2015,12,10,06,02,6.60
2015,12,10,06,03,6.70
2015,12,10,06,04,6.70
2015,12,10,06,05,6.70
2015,12,10,06,06,6.70
2015,12,10,06,07,6.70
2015,12,10,06,08,6.70
2015,12,10,06,09,6.70
2015,12,10,06,10,6.70
2015,12,10,06,11,6.70
2015,12,10,06,12,6.70
2015,12,10,06,13,6.70
2015,12,10,06,14,6.70
2015,12,10,06,15,6.70
2015,12,10,06,16,6.70
2015,12,10,06,17,6.70
2015,12,10,06,18,6.70
2015,12,10,06,19,6.60
2015,12,10,06,20,6.60
2015,12,10,06,21,6.60
2015,12,10,06,22,6.50
2015,12,10,06,23,6.50
2015,12,10,06,24,6.40
2015,12,10,06,25,6.40
2015,12,10,06,26,6.30
2015,12,10,06,27,6.30
2015,12,10,06,28,6.20
2015,12,10,06,29,6.20
2015,12,10,06,30,6.20
2015,12,10,06,31,6.20
2015,12,10,06,32,6.20
2015,12,10,06,33,6.20
2015,12,10,06,34,6.10
2015,12,10,06,35,6.10
2015,12,10,06,36,6.10
2015,12,10,06,37,6.10
2015,12,10,06,38,6.10
2015,12,10,06,39,6.10
2015,12,10,06,40,6.10
2015,12,10,06,41,6.10
2015,12,10,06,42,6.10
2015,12,10,06,43,6.10
2015,12,10,06,44,6.10
2015,12,10,06,45,6.00
2015,12,10,06,46,6.00
2015,12,10,06,47,6.00
2015,12,10,06,48,5.90
2015,12,10,06,49,5.90
2015,12,10,06,50,5.90
2015,12,10,06,51,5.90
2015,12,10,06,52,5.90
2015,12,10,06,53,5.90
2015,12,10,06,54,5.90
2015,12,10,06,55,5.90
2015,12,10,06,56,5.90
2015,12,10,06,57,5.90
2015,12,10,06,58,5.90
2015,12,10,06,59,5.90
2015,12,10,07,00,5.90
2015,12,10,07,01,5.90
2015,12,10,07,02,5.90
2015,12,10,07,03,5.90
2015,12,10,07,04,5.90
2015,12,10,07,05,5.90
2015,12,10,07,06,5.90
2015,12,10,07,07,5.90
2015,12,10,07,08,5.90
2015,12,10,07,09,5.90
2015,12,10,07,10,5.90
2015,12,10,07,11,5.90
2015,12,10,07,12,5.80
2015,12,10,07,13,5.80
2015,12,10,07,14,5.80
2015,12,10,07,15,5.90
2015,12,10,07,16,5.90
2015,12,10,07,17,5.90
2015,12,10,07,18,5.90
2015,12,10,07,19,5.90
2015,12,10,07,20,5.90
2015,12,10,07,21,5.90
2015,12,10,07,22,5.90
2015,12,10,07,23,5.90
2015,12,10,07,24,5.90
2015,12,10,07,25,5.90
2015,12,10,07,26,5.90
2015,12,10,07,27,5.90
2015,12,10,07,28,5.90
2015,12,10,07,29,5.90
2015,12,10,07,30,5.90
2015,12,10,07,31,5.90
2015,12,10,07,32,5.90
2015,12,10,07,33,5.90
2015,12,10,07,34,5.90
2015,12,10,07,35,5.90
2015,12,10,07,36,6.00
2015,12,10,07,37,6.00
2015,12,10,07,38,6.00
2015,12,10,07,39,6.00
2015,12,10,07,40,6.00
2015,12,10,07,41,6.00
2015,12,10,07,42,6.00
2015,12,10,07,43,6.00
2015,12,10,07,44,6.00
2015,12,10,07,45,6.00
2015,12,10,07,46,6.00
2015,12,10,07,47,6.00
2015,12,10,07,48,5.90
2015,12,10,07,49,5.90
2015,12,10,07,50,5.90
2015,12,10,07,51,5.90
2015,12,10,07,52,5.90
2015,12,10,07,53,5.90
2015,12,10,07,54,5.90
2015,12,10,07,55,5.90
2015,12,10,07,56,5.90
2015,12,10,07,57,5.90
2015,12,10,07,58,5.90
2015,12,10,07,59,6.00
2015,12,10,08,00,6.00
2015,12,10,08,01,6.10
2015,12,10,08,02,6.10
2015,12,10,08,03,6.10
2015,12,10,08,04,6.10
2015,12,10,08,05,6.20
2015,12,10,08,06,6.20
2015,12,10,08,07,6.20
2015,12,10,08,08,6.20
2015,12,10,08,09,6.20
2015,12,10,08,10,6.10
2015,12,10,08,11,6.20
2015,12,10,08,12,6.20
2015,12,10,08,13,6.30
2015,12,10,08,14,6.30
2015,12,10,08,15,6.40
2015,12,10,08,16,6.40
2015,12,10,08,17,6.50
2015,12,10,08,18,6.50
2015,12,10,08,19,6.50
2015,12,10,08,20,6.50
2015,12,10,08,21,6.60
2015,12,10,08,22,6.60
2015,12,10,08,23,6.60
2015,12,10,08,24,6.60
2015,12,10,08,25,6.60
2015,12,10,08,26,6.60
2015,12,10,08,27,6.60
2015,12,10,08,28,6.60
2015,12,10,08,29,6.60
2015,12,10,08,30,6.70
2015,12,10,08,31,6.70
2015,12,10,08,32,6.70
2015,12,10,08,33,6.70
2015,12,10,08,34,6.70
2015,12,10,08,35,6.70
2015,12,10,08,36,6.70
2015,12,10,08,37,6.70
2015,12,10,08,38,6.60
2015,12,10,08,39,6.60
2015,12,10,08,40,6.60
2015,12,10,08,41,6.60
2015,12,10,08,42,6.50
2015,12,10,08,43,6.50
2015,12,10,08,44,6.50
2015,12,10,08,45,6.50
2015,12,10,08,46,6.60
2015,12,10,08,47,6.50
2015,12,10,08,48,6.60
2015,12,10,08,49,6.50
2015,12,10,08,50,6.50
2015,12,10,08,51,6.50
2015,12,10,08,52,6.40
2015,12,10,08,53,6.40
2015,12,10,08,54,6.40
2015,12,10,08,55,6.40
2015,12,10,08,56,6.40
2015,12,10,08,57,6.40
2015,12,10,08,58,6.40
2015,12,10,08,59,6.30
2015,12,10,09,00,6.30
2015,12,10,09,01,6.30
2015,12,10,09,02,6.30
2015,12,10,09,03,6.30
2015,12,10,09,04,6.30
2015,12,10,09,05,6.30
2015,12,10,09,06,6.30
2015,12,10,09,07,6.30
2015,12,10,09,08,6.20
2015,12,10,09,09,6.20
2015,12,10,09,10,6.20
2015,12,10,09,11,6.20
2015,12,10,09,12,6.30
2015,12,10,09,13,6.20
2015,12,10,09,14,6.30
2015,12,10,09,15,6.30
2015,12,10,09,16,6.30
2015,12,10,09,17,6.30
2015,12,10,09,18,6.30
2015,12,10,09,19,6.30
2015,12,10,09,20,6.30
2015,12,10,09,21,6.30
2015,12,10,09,22,6.30
2015,12,10,09,23,6.30
2015,12,10,09,24,6.30
2015,12,10,09,25,6.30
2015,12,10,09,26,6.30
2015,12,10,09,27,6.20
2015,12,10,09,28,6.20
2015,12,10,09,29,6.20
2015,12,10,09,30,6.20
2015,12,10,09,31,6.20
2015,12,10,09,32,6.30
2015,12,10,09,33,6.30
2015,12,10,09,34,6.30
2015,12,10,09,35,6.20
2015,12,10,09,36,6.20
2015,12,10,09,37,6.20
2015,12,10,09,38,6.20
2015,12,10,09,39,6.30
2015,12,10,09,40,6.20
2015,12,10,09,41,6.20
2015,12,10,09,42,6.20
2015,12,10,09,43,6.20
2015,12,10,09,44,6.20
2015,12,10,09,45,6.20
2015,12,10,09,46,6.20
2015,12,10,09,47,6.20
2015,12,10,09,48,6.20
2015,12,10,09,49,6.20
2015,12,10,09,50,6.20
2015,12,10,09,51,6.20
2015,12,10,09,52,6.20
2015,12,10,09,53,6.20
2015,12,10,09,54,6.20
2015,12,10,09,55,6.30
2015,12,10,09,56,6.20
2015,12,10,09,57,6.20
2015,12,10,09,58,6.30
2015,12,10,09,59,6.20
2015,12,10,10,00,6.20
2015,12,10,10,01,6.30
2015,12,10,10,02,6.30
2015,12,10,10,03,6.30
2015,12,10,10,04,6.30
2015,12,10,10,05,6.30
2015,12,10,10,06,6.30
2015,12,10,10,07,6.30
2015,12,10,10,08,6.40
2015,12,10,10,09,6.40
2015,12,10,10,10,6.40
2015,12,10,10,11,6.40
2015,12,10,10,12,6.40
2015,12,10,10,13,6.40
2015,12,10,10,14,6.40
2015,12,10,10,15,6.40
2015,12,10,10,16,6.40
2015,12,10,10,17,6.40
2015,12,10,10,18,6.40
2015,12,10,10,19,6.50
2015,12,10,10,20,6.50
2015,12,10,10,21,6.50
2015,12,10,10,22,6.50
2015,12,10,10,23,6.50
2015,12,10,10,24,6.50
2015,12,10,10,25,6.50
2015,12,10,10,26,6.50
2015,12,10,10,27,6.50
2015,12,10,10,28,6.50
2015,12,10,10,29,6.60
2015,12,10,10,30,6.60
2015,12,10,10,31,6.60
2015,12,10,10,32,6.60
2015,12,10,10,33,6.60
2015,12,10,10,34,6.60
2015,12,10,10,35,6.60
2015,12,10,10,36,6.60
2015,12,10,10,37,6.60
2015,12,10,10,38,6.60
2015,12,10,10,39,6.60
2015,12,10,10,40,6.60
2015,12,10,10,41,6.60
2015,12,10,10,42,6.60
2015,12,10,10,43,6.70
2015,12,10,10,44,6.70
2015,12,10,10,45,6.70
2015,12,10,10,46,6.70
2015,12,10,10,47,6.70
2015,12,10,10,48,6.70
2015,12,10,10,49,6.70
2015,12,10,10,50,6.70
2015,12,10,10,51,6.70
2015,12,10,10,52,6.70
2015,12,10,10,53,6.70
2015,12,10,10,54,6.60
2015,12,10,10,55,6.60
2015,12,10,10,56,6.60
2015,12,10,10,57,6.60
2015,12,10,10,58,6.60
2015,12,10,10,59,6.60
2015,12,10,11,00,6.60
2015,12,10,11,01,6.60
2015,12,10,11,02,6.60
2015,12,10,11,03,6.60
2015,12,10,11,04,6.60
2015,12,10,11,05,6.70
2015,12,10,11,06,6.60
2015,12,10,11,07,6.70
2015,12,10,11,08,6.70
2015,12,10,11,09,6.70
2015,12,10,11,10,6.70
2015,12,10,11,11,6.70
2015,12,10,11,12,6.70
2015,12,10,11,13,6.70
2015,12,10,11,14,6.70
2015,12,10,11,15,6.70
2015,12,10,11,16,6.70
2015,12,10,11,17,6.70
2015,12,10,11,18,6.80
2015,12,10,11,19,6.80
2015,12,10,11,20,6.80
2015,12,10,11,21,6.80
2015,12,10,11,22,6.80
2015,12,10,11,23,6.70
2015,12,10,11,24,6.70
2015,12,10,11,25,6.80
2015,12,10,11,26,6.70
2015,12,10,11,27,6.70
2015,12,10,11,28,6.80
2015,12,10,11,29,6.80
2015,12,10,11,30,6.80
2015,12,10,11,31,6.80
2015,12,10,11,32,6.80
2015,12,10,11,33,6.80
2015,12,10,11,34,6.80
2015,12,10,11,35,6.90
2015,12,10,11,36,6.90
2015,12,10,11,37,6.90
2015,12,10,11,38,6.90
2015,12,10,11,39,7.00
2015,12,10,11,40,7.00
2015,12,10,11,41,7.10
2015,12,10,11,42,7.10
2015,12,10,11,43,7.10
2015,12,10,11,44,7.10
2015,12,10,11,45,7.10
2015,12,10,11,46,7.10
2015,12,10,11,47,7.10
2015,12,10,11,48,7.10
2015,12,10,11,49,7.10
2015,12,10,11,50,7.20
2015,12,10,11,51,7.20
2015,12,10,11,52,7.10
2015,12,10,11,53,7.10
2015,12,10,11,54,7.10
2015,12,10,11,55,7.10
2015,12,10,11,56,7.10
2015,12,10,11,57,7.10
2015,12,10,11,58,7.10
2015,12,10,11,59,7.10
2015,12,10,12,00,7.10
2015,12,10,12,01,7.10
2015,12,10,12,02,7.10
2015,12,10,12,03,7.10
2015,12,10,12,04,7.20
2015,12,10,12,05,7.20
2015,12,10,12,06,7.10
2015,12,10,12,07,7.20
2015,12,10,12,08,7.10
2015,12,10,12,09,7.20
2015,12,10,12,10,7.10
2015,12,10,12,11,7.20
2015,12,10,12,12,7.20
2015,12,10,12,13,7.20
2015,12,10,12,14,7.20
2015,12,10,12,15,7.20
2015,12,10,12,16,7.20
2015,12,10,12,17,7.20
2015,12,10,12,18,7.20
2015,12,10,12,19,7.20
2015,12,10,12,20,7.20
2015,12,10,12,21,7.20
2015,12,10,12,22,7.20
2015,12,10,12,23,7.20
2015,12,10,12,24,7.20
2015,12,10,12,25,7.20
2015,12,10,12,26,7.20
2015,12,10,12,27,7.20
2015,12,10,12,28,7.20
2015,12,10,12,29,7.20
2015,12,10,12,30,7.20
2015,12,10,12,31,7.10
2015,12,10,12,32,7.10
2015,12,10,12,33,7.10
2015,12,10,12,34,7.10
2015,12,10,12,35,7.10
2015,12,10,12,36,7.10
2015,12,10,12,37,7.10
2015,12,10,12,38,7.20
2015,12,10,12,39,7.20
2015,12,10,12,40,7.20
2015,12,10,12,41,7.20
2015,12,10,12,42,7.20
2015,12,10,12,43,7.20
2015,12,10,12,44,7.20
2015,12,10,12,45,7.20
2015,12,10,12,46,7.20
2015,12,10,12,47,7.30
2015,12,10,12,48,7.30
2015,12,10,12,49,7.30
2015,12,10,12,50,7.30
2015,12,10,12,51,7.40
2015,12,10,12,52,7.40
2015,12,10,12,53,7.50
2015,12,10,12,54,7.60
2015,12,10,12,55,7.70
2015,12,10,12,56,7.70
2015,12,10,12,57,7.80
2015,12,10,12,58,7.90
2015,12,10,12,59,8.00
2015,12,10,13,00,8.10
2015,12,10,13,01,8.20
2015,12,10,13,02,8.20
2015,12,10,13,03,8.30
2015,12,10,13,04,8.30
2015,12,10,13,05,8.40
2015,12,10,13,06,8.40
2015,12,10,13,07,8.60
2015,12,10,13,08,8.60
2015,12,10,13,09,8.70
2015,12,10,13,10,8.70
2015,12,10,13,11,8.80
2015,12,10,13,12,8.80
2015,12,10,13,13,8.80
2015,12,10,13,14,8.90
2015,12,10,13,15,8.90
2015,12,10,13,16,8.90
2015,12,10,13,17,9.00
2015,12,10,13,18,9.00
2015,12,10,13,19,9.10
2015,12,10,13,20,9.20
2015,12,10,13,21,9.20
2015,12,10,13,22,9.20
2015,12,10,13,23,9.30
2015,12,10,13,24,9.30
2015,12,10,13,25,9.30
2015,12,10,13,26,9.40
2015,12,10,13,27,9.40
2015,12,10,13,28,9.50
2015,12,10,13,29,9.40
2015,12,10,13,30,9.40
2015,12,10,13,31,9.40
2015,12,10,13,32,9.40
2015,12,10,13,33,9.40
2015,12,10,13,34,9.30
2015,12,10,13,35,9.30
2015,12,10,13,36,9.40
2015,12,10,13,37,9.40
2015,12,10,13,38,9.40
2015,12,10,13,39,9.40
2015,12,10,13,40,9.30
2015,12,10,13,41,9.30
2015,12,10,13,42,9.30
2015,12,10,13,43,9.20
2015,12,10,13,44,9.20
2015,12,10,13,45,9.10
2015,12,10,13,46,9.10
2015,12,10,13,47,9.10
2015,12,10,13,48,9.10
2015,12,10,13,49,9.20
2015,12,10,13,50,9.20
2015,12,10,13,51,9.20
2015,12,10,13,52,9.20
2015,12,10,13,53,9.20
2015,12,10,13,54,9.20
2015,12,10,13,55,9.10
2015,12,10,13,56,9.10
2015,12,10,13,57,9.10
2015,12,10,13,58,9.00
2015,12,10,13,59,8.90
2015,12,10,14,00,8.90
2015,12,10,14,01,8.80
2015,12,10,14,02,8.80
2015,12,10,14,03,8.80
2015,12,10,14,04,8.80
2015,12,10,14,05,8.70
2015,12,10,14,06,8.70
2015,12,10,14,07,8.70
2015,12,10,14,08,8.80
2015,12,10,14,09,8.80
2015,12,10,14,10,8.90
2015,12,10,14,11,9.00
2015,12,10,14,12,9.10
2015,12,10,14,13,9.10
2015,12,10,14,14,9.10
2015,12,10,14,15,9.10
2015,12,10,14,16,8.90
2015,12,10,14,17,8.90
2015,12,10,14,18,8.80
2015,12,10,14,19,8.80
2015,12,10,14,20,8.80
2015,12,10,14,21,8.80
2015,12,10,14,22,8.70
2015,12,10,14,23,8.70
2015,12,10,14,24,8.70
2015,12,10,14,25,8.70
2015,12,10,14,26,8.70
2015,12,10,14,27,8.70
2015,12,10,14,28,8.70
2015,12,10,14,29,8.70
2015,12,10,14,30,8.80
2015,12,10,14,31,8.80
2015,12,10,14,32,8.80
2015,12,10,14,33,8.80
2015,12,10,14,34,8.80
2015,12,10,14,35,8.80
2015,12,10,14,36,8.80
2015,12,10,14,37,8.80
2015,12,10,20,50,6.90
2015,12,10,20,51,6.90
2015,12,10,20,52,6.90
2015,12,10,20,53,6.90
2015,12,10,20,54,6.90
2015,12,10,20,55,6.90
2015,12,10,20,56,6.90
2015,12,10,20,57,6.90
2015,12,10,20,58,6.90
2015,12,10,20,59,6.90
2015,12,10,21,00,6.90
2015,12,10,21,01,6.90
2015,12,10,21,02,6.90
2015,12,10,21,03,6.90
2015,12,10,21,04,6.90
2015,12,10,21,05,6.90
2015,12,10,21,06,6.90
2015,12,10,21,07,6.90
2015,12,10,21,08,6.90
2015,12,10,21,09,6.90
2015,12,10,21,10,6.90
2015,12,10,21,11,6.90
2015,12,10,21,12,6.90
2015,12,10,21,13,6.90
2015,12,10,21,14,6.80
2015,12,10,21,15,6.80
2015,12,10,21,16,6.80
2015,12,10,21,17,6.80
2015,12,10,21,18,6.70
2015,12,10,21,19,6.70
2015,12,10,21,20,6.70
2015,12,10,21,21,6.70
2015,12,10,21,22,6.70
2015,12,10,21,23,6.70
2015,12,10,21,24,6.70
2015,12,10,21,25,6.60
2015,12,10,21,26,6.60
2015,12,10,21,27,6.60
2015,12,10,21,28,6.60
2015,12,10,21,29,6.60
2015,12,10,21,30,6.50
2015,12,10,21,31,6.50
2015,12,10,21,32,6.50
2015,12,10,21,33,6.40
2015,12,10,21,34,6.40
2015,12,10,21,35,6.40
2015,12,10,21,36,6.40
2015,12,10,21,37,6.40
2015,12,10,21,38,6.30
2015,12,10,21,39,6.30
2015,12,10,21,40,6.30
2015,12,10,21,41,6.30
2015,12,10,21,42,6.30
2015,12,10,21,43,6.30
2015,12,10,21,44,6.30
2015,12,10,21,45,6.30
2015,12,10,21,46,6.30
2015,12,10,21,47,6.20
2015,12,10,21,48,6.20
2015,12,10,21,49,6.20
2015,12,10,21,50,6.20
2015,12,10,21,51,6.10
2015,12,10,21,52,6.10
2015,12,10,21,53,6.10
2015,12,10,21,54,6.10
2015,12,10,21,55,6.10
2015,12,10,21,56,6.10
2015,12,10,21,57,6.10
2015,12,10,21,58,6.10
2015,12,10,21,59,6.00
2015,12,10,22,00,6.10
2015,12,10,22,01,6.10
2015,12,10,22,02,6.10
2015,12,10,22,03,6.00
2015,12,10,22,04,5.90
2015,12,10,22,05,5.90
2015,12,10,22,06,5.90
2015,12,10,22,07,5.90
2015,12,10,22,08,5.90
2015,12,10,22,09,5.90
2015,12,10,22,10,5.90
2015,12,10,22,11,5.90
2015,12,10,22,12,5.80
2015,12,10,22,13,5.80
2015,12,10,22,14,5.80
2015,12,10,22,15,5.80
2015,12,10,22,16,5.80
2015,12,10,22,17,5.80
2015,12,10,22,18,5.80
2015,12,10,22,19,5.80
2015,12,10,22,20,5.80
2015,12,10,22,21,5.70
2015,12,10,22,22,5.70
2015,12,10,22,23,5.70
2015,12,10,22,24,5.70
2015,12,10,22,25,5.70
2015,12,10,22,26,5.70
2015,12,10,22,27,5.60
2015,12,10,22,28,5.60
2015,12,10,22,29,5.60
2015,12,10,22,30,5.60
2015,12,10,22,31,5.60
2015,12,10,22,32,5.60
2015,12,10,22,33,5.60
2015,12,10,22,34,5.60
2015,12,10,22,35,5.60
2015,12,10,22,36,5.60
2015,12,10,22,37,5.60
2015,12,10,22,38,5.60
2015,12,10,22,39,5.60
2015,12,10,22,40,5.50
2015,12,10,22,41,5.50
2015,12,10,22,42,5.50
2015,12,10,22,43,5.50
2015,12,10,22,44,5.60
2015,12,10,22,45,5.60
2015,12,10,22,46,5.60
2015,12,10,22,47,5.60
2015,12,10,22,48,5.60
2015,12,10,22,49,5.60
2015,12,10,22,50,5.60
2015,12,10,22,51,5.60
2015,12,10,22,52,5.60
2015,12,10,22,53,5.60
2015,12,10,22,54,5.60
2015,12,10,22,55,5.50
2015,12,10,22,56,5.60
2015,12,10,22,57,5.60
2015,12,10,22,58,5.60
2015,12,10,22,59,5.60
2015,12,10,23,00,5.60
2015,12,10,23,01,5.70
2015,12,10,23,02,5.70
2015,12,10,23,03,5.70
2015,12,10,23,04,5.70
2015,12,10,23,05,5.70
2015,12,10,23,06,5.70
2015,12,10,23,07,5.70
2015,12,10,23,08,5.70
2015,12,10,23,09,5.70
2015,12,10,23,10,5.70
2015,12,10,23,11,5.70
2015,12,10,23,12,5.70
2015,12,10,23,13,5.80
2015,12,10,23,14,5.80
2015,12,10,23,15,5.80
2015,12,10,23,16,5.80
2015,12,10,23,17,5.80
2015,12,10,23,18,5.80
2015,12,10,23,19,5.80
2015,12,10,23,20,5.80
2015,12,10,23,21,5.80
2015,12,10,23,22,5.80
2015,12,10,23,23,5.80
2015,12,10,23,24,5.80
2015,12,10,23,25,5.80
2015,12,10,23,26,5.80
2015,12,10,23,27,5.80
2015,12,10,23,28,5.70
2015,12,10,23,29,5.70
2015,12,10,23,30,5.60
2015,12,10,23,31,5.60
2015,12,10,23,32,5.50
2015,12,10,23,33,5.50
2015,12,10,23,34,5.40
2015,12,10,23,35,5.40
2015,12,10,23,36,5.40
2015,12,10,23,37,5.40
2015,12,10,23,38,5.40
2015,12,10,23,39,5.30
2015,12,10,23,40,5.30
2015,12,10,23,41,5.30
2015,12,10,23,42,5.30
2015,12,10,23,43,5.30
2015,12,10,23,44,5.30
2015,12,10,23,45,5.30
2015,12,10,23,46,5.30
2015,12,10,23,47,5.30
2015,12,10,23,48,5.30
2015,12,10,23,49,5.30
2015,12,10,23,50,5.20
2015,12,10,23,51,5.20
2015,12,10,23,52,5.20
2015,12,10,23,53,5.20
2015,12,10,23,54,5.20
2015,12,10,23,55,5.20
2015,12,10,23,56,5.20
2015,12,10,23,57,5.20
2015,12,10,23,58,5.20
2015,12,10,23,59,5.20
